This demonstration page uses our WeatherBlox Daily Observations layout. Learn more.

Hourly Observations for November 8, 2016

Temp ( °F °C ) Dew Point ( °F °C ) Humidity (%) Winds ( mph kmh ) Pressure ( in mb ) Visibility ( mi km ) Precip ( " mm )
12:15 am 00:15 Clear 37 3 34 1 87 87 Calm 30.39 1029 10 16.09344 0 0
12:35 am 00:35 Clear 37 3 34 1 87 87 WSW 3 6 30.36 1028 10 16.09344 0 0
12:55 am 00:55 Clear 36 2 34 1 93 93 Calm 30.36 1028 10 16.09344 0 0
1:15 am 01:15 Clear 37 3 34 1 87 87 Calm 30.36 1028 10 16.09344 0 0
1:35 am 01:35 Clear 36 2 32 0 87 87 W 3 6 30.36 1028 10 16.09344 0 0
1:55 am 01:55 Clear 36 2 36 2 100 100 Calm 30.36 1028 10 16.09344 0 0
2:15 am 02:15 Clear 34 1 34 1 100 100 Calm 30.36 1028 10 16.09344 0 0
2:35 am 02:35 Clear 34 1 34 1 100 100 WNW 5 7 30.36 1028 10 16.09344 0 0
2:55 am 02:55 Clear 36 2 34 1 93 93 W 5 7 30.36 1028 10 16.09344 0 0
3:15 am 03:15 Clear 36 2 34 1 93 93 W 3 6 30.36 1028 10 16.09344 0 0
3:35 am 03:35 Clear 34 1 34 1 100 100 W 3 6 30.33 1027 10 16.09344 0 0
3:55 am 03:55 Clear 36 2 32 0 87 87 Calm 30.33 1027 10 16.09344 0 0
4:15 am 04:15 Clear 34 1 34 1 100 100 Calm 30.33 1027 10 16.09344 0 0
4:35 am 04:35 Clear 34 1 32 0 93 93 Calm 30.33 1027 10 16.09344 0 0
4:55 am 04:55 Clear 34 1 34 1 100 100 W 3 6 30.33 1027 10 16.09344 0 0
5:15 am 05:15 Clear 32 0 32 0 100 100 Calm 30.33 1027 10 16.09344 0 0
5:35 am 05:35 Clear 36 2 34 1 93 93 Calm 30.33 1027 10 16.09344 0 0
5:55 am 05:55 Clear 36 2 34 1 93 93 WSW 3 6 30.3 1026 10 16.09344 0 0
6:15 am 06:15 Clear 32 0 32 0 100 100 W 5 7 30.3 1026 10 16.09344 0 0
6:35 am 06:35 Clear 34 1 34 1 100 100 Calm 30.3 1026 10 16.09344 0 0
6:55 am 06:55 Sunny 34 1 32 0 93 93 Calm 30.3 1026 10 16.09344 0 0
7:15 am 07:15 Sunny 34 1 32 0 93 93 Calm 30.3 1026 10 16.09344 0 0
7:35 am 07:35 Sunny 36 2 34 1 93 93 Calm 30.3 1026 10 16.09344 0 0
7:55 am 07:55 Sunny 41 5 34 1 76 76 Calm 30.3 1026 10 16.09344 0 0
8:15 am 08:15 Sunny 43 6 34 1 71 71 Calm 30.3 1026 10 16.09344 0 0
8:35 am 08:35 Sunny with Nearby Thunderstorms 45 7 36 2 71 71 undefined N/A 30.3 1026 10 16.09344 0 0
8:55 am 08:55 Sunny 48 9 37 3 66 66 Calm 30.3 1026 10 16.09344 0 0
9:15 am 09:15 Sunny 52 11 37 3 58 58 Calm 30.3 1026 10 16.09344 0 0
9:35 am 09:35 Sunny 54 12 37 3 54 54 Calm 30.3 1026 10 16.09344 0 0
9:55 am 09:55 Sunny 57 14 37 3 48 48 WSW 3 6 30.24 1024 10 16.09344 0 0
10:15 am 10:15 Sunny 61 16 36 2 39 39 SW 5 7 30.24 1024 10 16.09344 0 0
10:35 am 10:35 Sunny 63 17 36 2 37 37 S 6 9 30.24 1024 10 16.09344 0 0
10:55 am 10:55 Sunny 63 17 36 2 37 37 S 7 11 30.24 1024 10 16.09344 0 0
11:15 am 11:15 Sunny 64 18 36 2 34 34 SW 5 7 30.21 1023 10 16.09344 0 0
11:35 am 11:35 Sunny 66 19 36 2 32 32 S 7 11 30.21 1023 10 16.09344 0 0
11:55 am 11:55 Sunny 68 20 36 2 30 30 SW 7 11 30.18 1022 10 16.09344 0 0
12:15 pm 12:15 Sunny 68 20 37 3 33 33 SSW 6 9 30.18 1022 10 16.09344 0 0
12:35 pm 12:35 Sunny 70 21 37 3 31 31 Calm 30.18 1022 10 16.09344 0 0
12:55 pm 12:55 Sunny 70 21 37 3 31 31 Calm 30.15 1021 10 16.09344 0 0
1:15 pm 13:15 Sunny 70 21 37 3 31 31 W 3 6 30.15 1021 10 16.09344 0 0
1:35 pm 13:35 Sunny 70 21 41 5 35 35 W 3 6 30.15 1021 10 16.09344 0 0
1:55 pm 13:55 Sunny 70 21 39 4 33 33 Calm 30.12 1020 10 16.09344 0 0
2:15 pm 14:15 Sunny 70 21 41 5 35 35 S 3 6 30.12 1020 10 16.09344 0 0
2:35 pm 14:35 Sunny 70 21 41 5 35 35 S 3 6 30.12 1020 10 16.09344 0 0
2:55 pm 14:55 Sunny 70 21 41 5 35 35 Calm 30.09 1019 10 16.09344 0 0
3:15 pm 15:15 Sunny 72 22 41 5 33 33 Calm 30.09 1019 10 16.09344 0 0
3:35 pm 15:35 Sunny 70 21 41 5 35 35 S 5 7 30.09 1019 10 16.09344 0 0
3:55 pm 15:55 Sunny 70 21 41 5 35 35 S 5 7 30.09 1019 10 16.09344 0 0
4:15 pm 16:15 Sunny 68 20 41 5 38 38 S 5 7 30.09 1019 10 16.09344 0 0
4:35 pm 16:35 Sunny 66 19 39 4 37 37 SSW 6 9 30.09 1019 10 16.09344 0 0
4:55 pm 16:55 Sunny 64 18 39 4 40 40 SSW 5 7 30.09 1019 10 16.09344 0 0
5:15 pm 17:15 Clear 63 17 39 4 42 42 SSW 7 11 30.06 1018 10 16.09344 0 0
5:35 pm 17:35 Clear 63 17 39 4 42 42 SSW 8 13 30.06 1018 10 16.09344 0 0
5:55 pm 17:55 Clear 63 17 41 5 45 45 SW 10 17 30.06 1018 10 16.09344 0 0
6:15 pm 18:15 Clear 63 17 41 5 45 45 SW 7 11 30.06 1018 10 16.09344 0 0
6:35 pm 18:35 Clear 59 15 41 5 51 51 SW 7 11 30.06 1018 10 16.09344 0 0
6:55 pm 18:55 Clear 59 15 41 5 51 51 SW 5 7 30.06 1018 10 16.09344 0 0
7:15 pm 19:15 Clear 57 14 41 5 55 55 WSW 6 9 30.06 1018 10 16.09344 0 0
7:35 pm 19:35 Clear 59 15 41 5 51 51 SSW 7 11 30.06 1018 10 16.09344 0 0
7:55 pm 19:55 Clear 59 15 41 5 51 51 SSW 8 13 30.06 1018 10 16.09344 0 0
8:15 pm 20:15 Clear 57 14 41 5 55 55 SSW 6 9 30.03 1017 10 16.09344 0 0
8:35 pm 20:35 Clear 57 14 41 5 55 55 SW 6 9 30.03 1017 10 16.09344 0 0
8:55 pm 20:55 Clear 54 12 43 6 67 67 SW 5 7 30.03 1017 10 16.09344 0 0
9:15 pm 21:15 Clear 55 13 43 6 63 63 WSW 5 7 30.03 1017 10 16.09344 0 0
9:35 pm 21:35 Clear 57 14 41 5 55 55 SW 5 7 30.03 1017 10 16.09344 0 0
9:55 pm 21:55 Clear 55 13 41 5 59 59 SSW 6 9 30.03 1017 10 16.09344 0 0
10:15 pm 22:15 Clear 57 14 41 5 55 55 SW 5 7 30 1016 10 16.09344 0 0
10:35 pm 22:35 Clear 57 14 41 5 55 55 SW 5 7 30 1016 10 16.09344 0 0
10:55 pm 22:55 Clear 55 13 43 6 63 63 WSW 5 7 30 1016 10 16.09344 0 0
11:15 pm 23:15 Clear 57 14 43 6 59 59 WSW 7 11 30 1016 10 16.09344 0 0
11:35 pm 23:35 Partly Cloudy 59 15 43 6 55 55 SW 3 6 29.97 1015 10 16.09344 0 0
11:55 pm 23:55 Partly Cloudy 57 14 43 6 59 59 Calm 29.97 1015 10 16.09344 0 0

Powered by AerisWeather